Lewistown, MT

9:38 AM MST on January 22, 2018 (GMT -0700)
Lewistown Municipal

Weather History for KLWT - October, 2012

Change the Weather History Date:

Sunday, October 28, 2012

  Actual Average Record
Temperature  
Mean Temperature 42 °F 40 °F  
Max Temperature 55 °F 52 °F 78 °F (1937)
Min Temperature 28 °F 27 °F -7 °F (1991)
Degree Days  
Heating Degree Days 23 25  
Month to date heating degree days 693 582  
Since 1 July heating degree days 975 1059  
Cooling Degree Days 0 0  
Month to date cooling degree days 0 0  
Year to date cooling degree days 314 210  
Moisture  
Dew Point 34 °F    
Average Humidity 73    
Maximum Humidity 92    
Minimum Humidity 54    
Precipitation  
Precipitation 0.03 in 0.03 in 0.60 in (1912)
Month to date precipitation 1.45 1.05  
Year to date precipitation 14.30 15.40  
Snow  
Snow 0.00 in - - ()
Snow Depth 0.00 in    
Sea Level Pressure  
Sea Level Pressure 29.88 in    
Wind  
Wind Speed 12 mph (SW)    
Max Wind Speed 29 mph    
Max Gust Speed 36 mph    
Visibility 10 miles    
Events Rain    
T = Trace of Precipitation, MM = Missing Value Source: NWS Daily Summary

Daily Weather History Graph

Daily Weather History Graph

Search for Another Location

Airport or City:

Trip Planner

Search our weather history database for the weather conditions in past years. The results will help you decide how hot, cold, wet, or windy it might be!

Date:

Astronomy

Oct. 28, 2012 Rise Set
Actual Time 7:55 AM MDT 6:06 PM MDT
Civil Twilight 7:23 AM MDT 6:38 PM MDT
Nautical Twilight 6:48 AM MDT 7:14 PM MDT
Astronomical Twilight 6:12 AM MDT 7:49 PM MDT
Moon 5:26 PM MDT (10/28) 6:50 AM MDT (10/28)
Length of Visible Light 11h 14m
Length of Day
10h 11m
Waxing Gibbous, 99% of the Moon is Illuminated
Oct 28
Waxing Gibbous
Oct 29
Full
Nov 6
Last Quarter
Nov 13
New
Nov 20
First Quarter

Hourly Weather History & Observations

Time (MDT) Temp. Windchill Dew Point Humidity Pressure Visibility Wind Dir Wind Speed Gust Speed Precip Events Conditions
12:54 AM 28.0 °F 21.7 °F 26.1 °F 92% 30.02 in 10.0 mi ESE 5.8 mph - N/A   Partly Cloudy
1:54 AM 28.9 °F 21.9 °F 26.1 °F 89% 30.00 in 10.0 mi East 6.9 mph - N/A   Overcast
2:54 AM 28.9 °F 21.9 °F 26.1 °F 89% 29.99 in 10.0 mi ESE 6.9 mph - N/A   Mostly Cloudy
3:54 AM 34.0 °F 29.8 °F 28.0 °F 79% 29.93 in 10.0 mi Variable 4.6 mph - N/A   Mostly Cloudy
4:54 AM 39.0 °F 29.9 °F 30.9 °F 73% 29.90 in 10.0 mi SW 17.3 mph - 0.00 in Rain Light Rain
5:54 AM 37.9 °F 29.6 °F 33.1 °F 83% 29.90 in 10.0 mi SW 13.8 mph - 0.01 in Rain Light Rain
6:54 AM 37.9 °F 30.9 °F 35.1 °F 89% 29.90 in 10.0 mi WSW 10.4 mph - 0.01 in Rain Light Rain
7:54 AM 39.0 °F 32.8 °F 36.0 °F 89% 29.89 in 10.0 mi SSW 9.2 mph - 0.01 in   Overcast
8:54 AM 37.9 °F 33.5 °F 36.0 °F 93% 29.87 in 10.0 mi East 5.8 mph - 0.00 in   Mostly Cloudy
9:54 AM 41.0 °F - 37.9 °F 89% 29.86 in 10.0 mi Calm Calm - N/A   Overcast
11:54 AM 51.1 °F - 37.9 °F 61% 29.83 in 10.0 mi WSW 20.7 mph 25.3 mph N/A   Overcast
12:54 PM 55.0 °F - 39.0 °F 55% 29.82 in 10.0 mi WSW 20.7 mph 26.5 mph N/A   Clear
1:54 PM 54.0 °F - 39.0 °F 57% 29.82 in 10.0 mi WSW 16.1 mph - N/A   Mostly Cloudy
2:54 PM 54.0 °F - 37.9 °F 55% 29.81 in 10.0 mi WSW 23.0 mph 33.4 mph N/A   Clear
3:54 PM 53.1 °F - 37.9 °F 57% 29.81 in 10.0 mi SW 23.0 mph - N/A   Clear
4:54 PM 52.0 °F - 37.0 °F 57% 29.81 in 10.0 mi WSW 16.1 mph - N/A   Scattered Clouds
5:54 PM 50.0 °F - 37.0 °F 61% 29.84 in 10.0 mi WSW 18.4 mph - N/A   Clear
6:54 PM 48.0 °F - 35.1 °F 61% 29.85 in 10.0 mi WSW 16.1 mph - N/A   Clear
7:54 PM 48.9 °F - 34.0 °F 56% 29.85 in 10.0 mi WSW 15.0 mph - N/A   Clear
9:54 PM 45.0 °F 39.7 °F 35.1 °F 68% 29.88 in 10.0 mi West 10.4 mph - N/A   Clear
10:54 PM 42.1 °F 39.2 °F 35.1 °F 76% 29.89 in 10.0 mi WSW 4.6 mph - N/A   Clear
11:54 PM 42.1 °F 40.2 °F 35.1 °F 76% 29.88 in 10.0 mi West 3.5 mph - N/A   Clear